Orbital Elements at Epoch 2459000.5 (2020-May-31.0) TDB
Reference: JPL 12 (heliocentric ecliptic J2000)
Element | Value | Uncertainty (1-sigma) | Units |
e | .3386918941579997 | 2.9918e-05 | |
a | 1.372105367970812 | 6.4293e-05 | au |
q | .9073844019084183 | 4.2767e-06 | au |
i | 1.464191964347322 | 0.00015468 | deg |
node | 208.7271854619416 | 0.00085305 | deg |
peri | 78.58079324599018 | 0.0022115 | deg |
M | 126.978662382141 | 0.35489 | deg |
tp | 2458793.434441066860 (2019-Nov-05.93444107) | 0.56417 | TDB |
period | 587.0561227963826 1.61 | 0.041262 0.000113 | d yr |
n | .6132292740346124 | 4.3101e-05 | deg/d |
Q | 1.836826334033205 | 8.6069e-05 | au |
|
| | Orbit Determination Parameters
Additional Information
|